Regional Weather Roundup
Issued by NWS

Home | Current Version | Previous Version | Graphics & Text | Print | Product List | Glossary On
Versions: 1 2 3 4 5 6 7 8 9 10 11 12 13 14 15 16 17 18 19 20 21 22 23 24 25 26 27 28 29 30 31 32 33 34 35 36 37 38 39 40 41 42 43 44 45 46 47 48 49 50
000
ASUS43 KLOT 230703
RWRIL

ILLINOIS REGIONAL WEATHER ROUNDUP
NATIONAL WEATHER SERVICE CHICAGO/ROMEOVILLE IL
100 AM CST FRI FEB 23 2018

NOTE: "FAIR" INDICATES FEW OR NO CLOUDS BELOW 12,000 FEET WITH NO
SIGNIFICANT WEATHER AND/OR OBSTRUCTIONS TO VISIBILITY.

* THESE STATIONS ARE NOT UNDER NWS QUALITY CONTROL. THEY ALSO MAY NOT
  REPORT WEATHER SUCH AS PRECIPITATION OR FOG.

ILZ001-002-007-009-015-016-024-230800-
NORTHWEST ILLINOIS

CITY           SKY/WX    TMP DP  RH WIND       PRES   REMARKS
MOLINE         FOG       38  37  97 E8        30.14F VSB 1/2 WCI  32
STERLING*      FOG       37  37 100 E7        30.17F VSB 3/4 WCI  32
SAVANNA*       CLOUDY    37  37 100 E7        30.16F FOG     WCI  31
$$

ILZ003-004-008-010-011-017-018-230800-
NORTH CENTRAL ILLINOIS

CITY           SKY/WX    TMP DP  RH WIND       PRES   REMARKS
ROCKFORD       DRZL/FOG  37  36  96 SE9       30.19F VSB 1   WCI  30
FREEPORT*      FOG       34  34 100 E10       30.17F VSB 1   WCI  26
ROCHELLE*      CLOUDY    37  37 100 SE12      30.18F FOG     WCI  29
DE KALB*       FOG       38  38  99 SE14      30.19F VSB 1   WCI  29
PERU*          CLOUDY    40  40  99 SE10      30.19F FOG
$$

ILZ005-006-012>014-019>023-230800-
NORTHEAST ILLINOIS

CITY           SKY/WX    TMP DP  RH WIND       PRES   REMARKS
CHICAGO-OHARE  DRIZZLE   39  37  92 SE9       30.23F FOG     WCI  33
CHICAGO-MIDWAY CLOUDY    40  39  97 SE12      30.24F FOG
AURORA         CLOUDY    40  39  97 SE13      30.20F FOG
LANSING*       CLOUDY    38  38 100 SE8       30.25F FOG     WCI  32
JOLIET*        CLOUDY    40  40 100 SE9       30.22F FOG
WAUKEGAN       CLOUDY    35  35 100 SE12      30.24F FOG     WCI  27
DUPAGE AIRPORT CLOUDY    39  39 100 SE10      30.21F FOG     WCI  32
KANKAKEE*      CLOUDY    40  39  98 SE12      30.24F FOG
WHEELING       CLOUDY    39  37  92 E5        30.25F FOG
MORRIS*        CLOUDY    40  39  97 E9        30.20F FOG
ROMEOVILLE*    CLOUDY    39  38  97 SE14      30.22F FOG     WCI  30
NORTHERLY ISL    N/A     36  34  92 SE6         N/A  WCI  31
$$

LMZ740>746-230800-
SOUTHERN LAKE MICHIGAN

STATION/POSITION SKY/WX   TEMP    WIND        PRES    VSBY  WAVE
                          AIR SEA DIR/SP/G                  HT/PER
                          (F)     (DEG/KT/KT) (MB)    (MI)  (FT/S)
HARRISON CRIB              36     130/ 14/ 15   N/A
BURNHAM HARBOR             36     110/  5/  8   N/A
CALUMET HARBOR             38     120/  9/ 12 1024.5
BURNS HARBOR               38     150/ 10/ 18 1025.4F
MICHIGAN CITY              37     120/ 14/ 16   N/A
$$

ILZ025>027-034>036-040-047-049-050-058-095>099-230800-
WEST-CENTRAL ILLINOIS

CITY           SKY/WX    TMP DP  RH WIND       PRES   REMARKS
QUINCY         LGT RAIN  38  38 100 E3        30.12F VSB 3/4
GALESBURG*     FOG       40  40 100 SE6       30.15F VSB 1/2
MACOMB*        RAIN     N/A N/A N/A SE8       30.16F VSB 1/4
JACKSONVILLE*  DRIZZLE   43  42  97 SE7       30.13F
PITTSFIELD*    FOG       39  39 100 E3        30.12F VSB 1/4
$$

ILZ028>032-037-038-041>044-048-051>054-059>061-230800-
CENTRAL ILLINOIS

CITY           SKY/WX    TMP DP  RH WIND       PRES   REMARKS
BLOOMINGTON    FOG       42  41  96 SE10      30.18F VSB 1/2
DECATUR        CLOUDY    44  44 100 SE10      30.16F FOG
PEORIA         FOG       43  42  97 E7        30.16F VSB 1/2
LACON*         CLOUDY    41  41 100 SE9       30.18F FOG
LINCOLN*       CLOUDY    44  44 100 E6        30.15F FOG
SPRINGFIELD    CLOUDY    45  43  93 SE6       30.15F
TAYLORVILLE    CLOUDY    45  45 100 SE9       30.16R FOG
$$

ILZ033-039-045-046-055>057-062-063-230800-
EAST-CENTRAL ILLINOIS

CITY           SKY/WX    TMP DP  RH WIND       PRES   REMARKS
CHAMPAIGN      FOG       43  43 100 E9        30.17F VSB 1/2
DANVILLE*      CLOUDY    43  43  99 E6        30.20F FOG
RANTOUL*       FOG       44  44  99 E8        30.19F VSB 3/4
MATTOON        CLOUDY    45  44  97 SE14      30.17F FOG
PARIS*         CLOUDY    44  44 100 SE10      30.22F FOG
$$

ILZ079-100>102-230800-
SOUTHWEST ILLINOIS

CITY           SKY/WX    TMP DP  RH WIND       PRES   REMARKS
ALTON          CLOUDY    44  44 100 SE10      30.15F FOG
BELLEVILLE     CLOUDY    46  45  95 SE7       30.16F
CAHOKIA*       CLOUDY    46  44  93 SE7         N/A
SPARTA*        DRIZZLE   46  46 100 SE9       30.18F
$$

ILZ064>066-069>071-074>076-080>082-084>086-088>090-092>094-230800-
SOUTH-CENTRAL ILLINOIS

CITY           SKY/WX    TMP DP  RH WIND       PRES   REMARKS
CARBONDALE     LGT RAIN  48  48 100 CALM      30.20F
CAIRO*         CLOUDY    49  49 100 NW5       30.23S
EFFINGHAM*     CLOUDY    46  46 100 SE13      30.21F FOG
MARION         LGT RAIN  49  48  99 SE7       30.20F
MT. VERNON     LGT RAIN  48  47  96 VRB5      30.19F
CENTRALIA*     RAIN      48  48  99 SE8       30.17F
SALEM*         LGT RAIN  49  47  94 SE8       30.18F
METROPOLIS*    TSTM      51  51  98 N3        30.24R
$$

ILZ067-068-072-073-078-083-087-091-230800-
SOUTHEAST ILLINOIS

CITY           SKY/WX    TMP DP  RH WIND       PRES   REMARKS
LAWRENCEVILLE  LGT RAIN  47  47 100 SE9       30.24F FOG
FLORA*         LGT RAIN  48  48  98 SE12      30.21F
FAIRFIELD*     HVY RAIN  48  48 100 CALM      30.19F
HARRISBURG*    HVY RAIN  49  49 100 SE9       30.23F
ROBINSON*      DRIZZLE   45  45 100 SE14      30.22F
CARMI*         HVY RAIN  49  49 100 SE6       30.22F
$$

ABBREVIATIONS USED IN REMARKS
   TC - TEMPERATURE IN CELSIUS
  WCI - WIND CHILL INDEX
   HX - HEAT INDEX
  VSB - VISIBILITY
$$





USA.gov is the U.S. government's official web portal to all federal, state and local government web resources and services.